Change the Weather History Date:

Wednesday, September 26, 2012

  Actual Average Record
Temperature  
Mean Temperature 68 °F -  
Max Temperature 75 °F 72 °F 89 °F (2007)
Min Temperature 62 °F 50 °F 38 °F (1983)
Cooling Degree Days 4    
Growing Degree Days 18 (Base 50)    
Moisture  
Dew Point 59 °F    
Average Humidity 73    
Maximum Humidity 90    
Minimum Humidity 58    
Precipitation  
Precipitation 0.01 in - - ()
Sea Level Pressure  
Sea Level Pressure 30.07 in    
Wind  
Wind Speed 6 mph (SW)    
Max Wind Speed 13 mph    
Max Gust Speed 20 mph    
Visibility 10 miles    
Events Rain    
Averages and records for this station are not official NWS values.
T = Trace of Precipitation, MM = Missing Value Source: NWS Daily Summary

Daily Weather History Graph

Daily Weather History Graph

Search for Another Location

Airport or City:

Trip Planner

Search our weather history database for the weather conditions in past years. The results will help you decide how hot, cold, wet, or windy it might be!

Date:

Astronomy

Sep. 26, 2012 Rise Set
Actual Time 6:57 AM EDT 6:54 PM EDT
Civil Twilight 6:30 AM EDT 7:21 PM EDT
Nautical Twilight 5:58 AM EDT 7:53 PM EDT
Astronomical Twilight 5:26 AM EDT 8:25 PM EDT
Moon 4:53 PM EDT (9/26) 3:20 AM EDT (9/26)
Length of Visible Light 12h 51m
Length of Day
11h 57m
Waxing Gibbous, 88% of the Moon is Illuminated
Sep 26
Waxing Gibbous
Sep 29
Full
Oct 8
Last Quarter
Oct 15
New
Oct 21
First Quarter

Hourly Weather History & Observations

Time (EDT) Temp. Dew Point Humidity Pressure Visibility Wind Dir Wind Speed Gust Speed Precip Events Conditions
1:53 AM 62.1 °F 55.0 °F 78% 30.08 in 10.0 mi Calm Calm - N/A   Mostly Cloudy
2:53 AM 63.0 °F 54.0 °F 72% 30.06 in 10.0 mi SSW 9.2 mph - N/A   Mostly Cloudy
3:53 AM 63.0 °F 54.0 °F 72% 30.05 in 10.0 mi SSW 6.9 mph - N/A   Mostly Cloudy
4:53 AM 63.0 °F 54.0 °F 72% 30.06 in 10.0 mi SW 4.6 mph - N/A   Overcast
5:53 AM 63.0 °F 55.0 °F 75% 30.06 in 10.0 mi South 4.6 mph - N/A   Overcast
6:53 AM 62.1 °F 55.0 °F 78% 30.08 in 10.0 mi SSW 4.6 mph - N/A   Mostly Cloudy
8:53 AM 63.0 °F 57.9 °F 84% 30.08 in 10.0 mi SSE 4.6 mph - 0.00 in   Mostly Cloudy
9:53 AM 64.0 °F 57.9 °F 80% 30.10 in 10.0 mi SSW 6.9 mph - 0.00 in Rain Light Rain
10:53 AM 66.9 °F 57.9 °F 73% 30.08 in 10.0 mi SSW 6.9 mph - 0.00 in   Clear
11:53 AM 72.0 °F 61.0 °F 68% 30.09 in 10.0 mi SSW 5.8 mph - N/A   Scattered Clouds
12:53 PM 73.0 °F 59.0 °F 61% 30.07 in 10.0 mi West 12.7 mph 19.6 mph N/A   Mostly Cloudy
1:53 PM 73.0 °F 59.0 °F 61% 30.05 in 10.0 mi WSW 11.5 mph - N/A   Clear
2:53 PM 75.9 °F 60.1 °F 58% 30.04 in 10.0 mi WSW 8.1 mph - N/A   Partly Cloudy
3:53 PM 73.9 °F 59.0 °F 59% 30.03 in 10.0 mi West 10.4 mph - N/A   Mostly Cloudy
4:53 PM 73.9 °F 60.1 °F 62% 30.04 in 10.0 mi WSW 8.1 mph - N/A   Scattered Clouds
5:53 PM 73.0 °F 60.1 °F 64% 30.05 in 10.0 mi SW 5.8 mph - N/A   Partly Cloudy
6:53 PM 73.0 °F 60.1 °F 64% 30.07 in 10.0 mi West 5.8 mph - 0.00 in Rain Light Rain
7:53 PM 69.1 °F 62.1 °F 78% 30.09 in 8.0 mi West 8.1 mph - 0.01 in Rain Light Rain
8:53 PM 66.9 °F 62.1 °F 84% 30.08 in 10.0 mi WNW 4.6 mph - 0.00 in   Partly Cloudy
9:53 PM 64.0 °F 61.0 °F 90% 30.10 in 9.0 mi NNW 3.5 mph - N/A   Partly Cloudy
10:53 PM 66.0 °F 62.1 °F 87% 30.09 in 9.0 mi WNW 4.6 mph - N/A   Overcast
11:53 PM 64.9 °F 61.0 °F 87% 30.08 in 9.0 mi South 5.8 mph - N/A   Clear